Flag for Turkey Weather past 2 weeks in Ankara, Turkey

39 °F

Partly cloudy.

Feels Like: 37 °F
Forecast: 37 / 60 °F
Wind: 3 mph from East

Location: Ankara / Esenboga

Current Time: Nov 26, 2015 at 1:25:08 AM

Latest Report: Nov 26, 2015 at 12:50 AM

Visibility: N/A

Pressure: 29.92 "Hg (26.87 "Hg at 871m altitude)

Humidity: 75%

Dew point: 32 °F

Location of AnkaraLocation

Historic Weather in Ankara — Graph


Ankara temperature yesterday

Maximum temperature yesterday: 52 °F (at 1:50 PM)
Minimum temperature yesterday: 34 °F (at 6:20 AM)
Average temperature yesterday: 43 °F

Past Weeks' High & Low Weather Summary

High64 °F (Nov 22, 1:50 PM)100% (Nov 13, 5:20 AM)30.42 "Hg (Nov 13, 5:20 AM)
Low21 °F (Nov 18, 5:50 AM)18% (Nov 17, 2:50 PM)29.89 "Hg (Nov 16, 12:50 PM)
Average44 °F66%30.15 "Hg
* Reported Nov 10 11:50 PM — Nov 25 11:50 PM, Ankara, Weather by CustomWeather, © 2015

Note: Actual official high and low records may vary slightly from our data, if they occured in-between our weather recording intervals... More about our weather records


Ankara weather history for previous 24 hours

Time TempWeatherWind HumidityBarometerVisibility
11:50 PM
Wed, Nov 25
39 °FPartly cloudy.7 mph75%29.92 "HgN/A
11:20 PM39 °FPartly cloudy.2 mph75%29.95 "Hg4 mi
10:50 PM41 °FPartly cloudy.3 mph70%29.95 "HgN/A
10:20 PM41 °FPartly cloudy.2 mph70%29.95 "HgN/A
9:50 PM43 °FPartly cloudy.1 mph66%29.95 "HgN/A
9:20 PM43 °FPartly cloudy.3 mph66%29.95 "HgN/A
8:50 PM43 °FPartly cloudy.6 mph61%29.95 "HgN/A
8:20 PM45 °FPartly cloudy.6 mph61%29.95 "HgN/A
7:50 PM46 °FPassing clouds.3 mph57%29.95 "HgN/A
7:20 PM46 °FPassing clouds.8 mph57%29.98 "HgN/A
6:50 PM45 °FPassing clouds.7 mph61%29.98 "Hg4 mi
6:20 PM45 °FPassing clouds.10 mph66%29.98 "Hg4 mi
5:50 PM46 °FPassing clouds.7 mph66%30.01 "Hg4 mi
5:20 PM48 °FPassing clouds.2 mph58%30.01 "Hg5 mi
4:50 PM48 °FPassing clouds.1 mph58%30.01 "Hg4 mi
4:20 PM50 °FPartly sunny.3 mph58%30.01 "Hg4 mi
3:50 PM50 °FPartly sunny.5 mph58%30.01 "Hg4 mi
3:20 PM52 °FPartly sunny.3 mph50%30.01 "HgN/A
2:50 PM52 °FPartly sunny.3 mph50%30.04 "HgN/A
2:20 PM52 °FPartly sunny.1 mph50%30.04 "HgN/A
1:50 PM52 °FPartly sunny.1 mph50%30.04 "HgN/A
1:20 PM50 °FPartly sunny.3 mph54%30.07 "HgN/A
12:50 PM50 °FPartly sunny.2 mph54%30.07 "HgN/A
12:20 PM50 °FPartly sunny.2 mph54%30.07 "HgN/A
11:50 AM50 °FPartly sunny.2 mph54%30.07 "HgN/A
11:20 AM48 °FPartly sunny.3 mph58%30.07 "HgN/A
10:50 AM46 °FPartly sunny.1 mph62%30.09 "HgN/A
10:20 AM45 °FPartly sunny.2 mph66%30.09 "HgN/A
9:50 AM43 °FPartly sunny.2 mph71%30.09 "Hg4 mi
8:50 AM43 °FPartly sunny.3 mph66%30.12 "Hg5 mi
8:20 AM39 °FPartly sunny.3 mph75%30.12 "Hg4 mi
7:50 AM37 °FPartly sunny.2 mph81%30.12 "Hg4 mi
7:20 AM36 °FPartly sunny.2 mph81%30.12 "Hg4 mi
6:50 AM34 °FPartly sunny.3 mph81%30.12 "Hg4 mi
6:20 AM34 °FPassing clouds.3 mph81%30.12 "Hg5 mi
5:50 AM36 °FPassing clouds.2 mph81%30.12 "Hg6 mi
5:20 AM36 °FPassing clouds.1 mph81%30.12 "Hg6 mi
4:50 AM37 °FPassing clouds.2 mph75%30.12 "Hg4 mi
4:20 AM36 °FPassing clouds.3 mph81%30.15 "Hg6 mi
3:50 AM36 °FPassing clouds.1 mph81%30.15 "Hg4 mi
3:20 AM36 °FPassing clouds.1 mph81%30.15 "Hg4 mi
2:50 AM36 °FPassing clouds.1 mph81%30.15 "Hg4 mi
1:50 AM39 °FPassing clouds.3 mph70%30.18 "Hg4 mi
1:20 AM39 °FPassing clouds.2 mph70%30.18 "Hg4 mi
Weather by CustomWeather, © 2015

See weather overviewHow to use our weather pages